Theta_e
308 308 309 308 310 316 319 318 317 318 318 319 319 319 315 317 322 318 321 318 319 335 341 344 340 339 343 345 347 348 348 348 349 349 352 350 346 347 346 346 345 343 342 339 334 333 333 333 334 336 338 337 336 335 335 334 334 334 333 332 330 329 326 324 322 322 322 322 323 323 323 323 323 324 325 326 328 329 329 330 330 328 325 323 320 319 319 319 322 322 320 321 321 320 320 319 318
308 309 308 310 313 317 319 318 320 322 319 316 316 318 316 317 321 318 320 316 323 343 345 343 344 345 344 345 346 347 349 348 349 348 349 347 346 346 345 346 344 342 341 338 335 333 333 333 334 335 337 338 336 336 336 335 335 335 334 333 331 329 329 327 326 326 325 326 327 328 329 329 329 329 330 330 330 331 332 333 333 333 329 325 324 321 320 320 319 321 322 322 319 318 318 318 317
308 308 309 315 317 318 318 317 321 320 316 313 313 318 317 318 321 318 317 318 332 344 343 343 344 345 346 348 350 350 350 348 348 347 346 346 346 345 345 346 343 342 341 338 335 333 333 333 334 334 336 338 336 336 336 337 337 335 334 334 332 331 330 329 328 328 328 329 329 331 332 332 332 332 332 333 333 333 334 334 334 334 332 328 327 328 327 326 321 318 320 322 319 317 319 318 315
309 309 313 317 316 316 319 321 325 322 318 315 313 319 321 321 320 317 315 320 339 345 341 343 345 346 347 350 350 347 349 348 348 347 346 346 345 345 346 344 343 342 340 338 335 333 333 333 334 334 336 338 337 336 336 337 337 336 335 334 334 332 331 330 330 330 330 331 331 332 332 332 332 332 333 334 334 334 334 334 335 333 333 330 328 330 332 331 329 325 319 322 324 321 324 322 318
311 313 314 317 317 317 319 320 324 322 317 317 317 320 325 323 319 316 317 318 332 344 341 343 347 346 346 348 347 347 349 349 349 347 346 346 346 345 345 344 342 341 340 338 335 334 333 333 333 335 337 338 337 336 336 337 337 337 336 335 335 333 333 332 332 332 332 332 332 332 332 332 331 331 332 332 333 334 334 333 332 331 329 325 325 329 333 329 331 333 322 322 328 328 328 328 325
314 316 315 316 316 315 318 317 320 321 317 318 319 321 322 319 318 315 317 315 327 340 338 341 347 346 347 347 347 349 349 349 349 347 345 346 346 346 345 343 342 341 339 337 335 335 334 333 333 335 337 337 338 337 337 337 337 337 337 336 335 334 334 334 334 333 333 333 332 332 331 330 330 330 330 329 329 329 329 327 326 325 322 321 322 325 326 325 326 329 323 321 329 331 328 326 325
314 316 315 317 315 315 321 322 322 322 318 318 318 321 320 317 315 314 316 315 327 340 338 342 345 346 346 346 347 348 348 349 349 348 347 346 347 346 344 342 342 340 338 336 335 335 335 334 333 336 338 337 337 337 337 338 338 337 337 336 335 335 334 334 334 334 333 333 332 330 328 328 328 329 327 325 324 324 324 323 322 321 320 320 320 320 319 321 322 324 322 320 325 327 325 322 320
314 315 315 319 319 316 321 322 321 320 318 317 316 319 318 317 315 314 316 313 325 341 343 344 343 346 348 345 348 348 348 349 348 348 347 347 347 345 343 342 342 340 337 336 335 336 336 335 334 337 338 337 336 337 338 338 338 337 337 336 335 335 334 333 333 333 333 333 330 328 326 326 326 325 323 323 323 323 322 322 322 320 319 319 317 318 318 319 320 320 322 320 320 323 321 320 321
314 314 314 318 320 318 321 320 317 316 317 318 316 316 315 315 315 314 317 314 326 342 344 344 340 346 349 346 348 348 349 350 348 349 347 347 347 344 343 342 341 339 336 336 335 336 337 335 334 337 338 337 335 337 338 338 338 338 337 335 335 335 334 332 331 332 333 331 327 325 325 324 323 323 323 323 324 323 322 322 321 320 319 319 318 317 317 316 316 317 321 320 319 321 321 320 322
314 315 313 317 319 317 318 318 318 317 318 317 314 314 314 315 314 313 315 314 328 344 344 342 341 346 348 346 347 348 350 349 348 349 348 348 346 343 342 342 340 338 336 335 335 336 335 333 333 335 337 338 335 335 337 337 338 337 336 335 334 333 332 331 330 332 332 328 325 324 323 322 322 324 325 325 325 324 323 323 321 321 320 320 319 318 316 314 314 316 319 321 318 320 321 322 323
313 313 313 318 320 317 317 318 321 322 318 315 314 315 315 314 313 311 313 319 334 345 344 342 345 345 346 345 345 346 348 349 349 349 348 348 345 342 342 341 339 337 336 335 335 336 334 332 331 332 336 338 336 336 336 336 337 337 336 334 333 332 330 330 330 331 330 326 324 323 323 323 325 326 327 327 326 325 324 322 321 321 322 322 321 320 318 315 313 314 318 320 319 319 322 324 325
313 314 317 322 322 319 318 318 321 324 321 317 318 316 314 313 312 312 319 335 343 343 343 342 346 345 345 346 344 345 348 349 349 349 348 347 344 342 342 341 338 337 336 335 335 335 332 331 330 330 332 335 337 337 336 335 335 336 335 333 333 331 329 330 331 330 329 325 323 323 324 326 327 328 328 328 327 326 324 323 322 322 323 323 321 320 320 317 314 312 316 319 319 319 322 325 328
314 315 320 320 319 319 317 316 317 323 326 319 316 315 314 313 311 318 327 340 342 340 341 341 343 344 345 345 344 345 346 348 349 347 347 345 343 342 342 339 338 336 335 335 334 332 331 329 326 325 327 330 333 333 333 333 334 334 331 330 331 330 329 330 330 329 328 325 323 324 327 329 329 330 329 330 328 327 325 324 322 322 323 323 321 320 321 320 316 313 313 318 320 319 322 326 329
314 313 318 317 315 317 316 315 316 318 323 318 314 312 315 317 315 325 336 343 343 339 341 342 342 343 345 344 345 345 344 347 347 346 345 344 343 341 340 338 336 335 335 334 332 331 329 327 323 323 324 325 326 328 330 330 330 329 327 328 329 327 327 328 327 327 326 325 324 324 327 329 329 330 330 330 329 328 327 325 323 322 322 322 321 321 322 322 319 315 313 316 319 319 322 327 329
313 312 319 319 314 315 313 315 316 315 320 317 314 312 315 323 325 327 335 344 346 342 343 344 341 341 345 346 345 345 344 346 346 345 344 342 342 341 339 337 335 334 334 333 331 330 328 325 323 324 324 323 324 326 327 327 327 326 326 327 326 325 325 326 326 325 326 325 324 325 327 328 328 329 329 330 329 328 327 326 324 322 322 321 320 321 322 321 320 317 313 315 318 319 320 325 329
314 313 318 319 315 315 313 313 315 315 319 317 314 313 313 323 333 335 334 340 343 342 343 342 340 338 342 345 344 344 344 346 345 344 343 342 341 340 339 336 335 334 333 331 331 329 326 325 325 326 327 326 326 327 327 327 328 327 326 326 325 325 325 325 326 325 326 325 325 326 327 328 328 328 329 328 327 327 327 326 324 323 322 321 320 320 320 320 321 320 315 314 317 318 317 322 328
313 314 318 318 315 315 315 315 315 315 319 317 313 312 312 318 332 341 338 340 342 341 341 341 339 338 340 343 343 344 346 345 345 343 342 342 340 339 337 336 335 334 333 331 331 329 326 327 326 327 328 327 328 329 327 328 328 327 326 325 326 326 326 326 326 326 327 326 327 327 327 327 327 328 328 327 326 326 326 325 324 323 322 321 320 320 318 318 321 322 318 315 316 317 316 319 325
314 318 319 316 316 316 318 319 315 314 316 316 312 312 312 313 323 337 342 340 339 340 340 341 340 340 343 343 342 345 346 346 344 342 342 341 340 339 336 335 335 333 332 330 331 330 327 327 326 327 329 328 328 328 326 328 329 329 328 327 329 329 328 327 326 327 327 327 328 327 327 326 327 327 327 327 326 325 325 324 324 323 322 321 321 321 319 317 318 321 320 317 316 318 317 317 322
315 317 317 317 318 315 314 316 313 313 314 314 312 312 312 312 314 326 342 340 338 343 341 340 341 342 343 343 343 346 346 345 344 342 342 341 340 339 337 335 334 333 332 331 332 331 329 328 328 329 331 330 329 328 326 328 330 330 330 331 331 331 329 328 327 327 327 327 328 328 327 326 327 327 327 327 326 325 325 324 324 323 322 321 321 321 318 318 318 320 321 318 315 318 318 317 319
313 312 316 319 317 314 311 313 314 313 313 312 312 312 311 315 312 317 338 339 341 346 342 340 342 342 343 343 345 346 346 345 344 342 342 342 340 339 337 336 335 333 332 332 332 332 330 329 329 330 331 330 329 328 326 329 331 330 331 333 332 330 329 328 328 328 328 328 328 328 328 327 327 327 328 329 329 327 326 325 324 323 321 319 320 320 318 318 320 320 321 319 316 318 319 318 318
312 312 317 316 311 313 313 312 314 313 313 312 311 313 312 315 313 321 337 340 340 339 338 338 341 341 341 343 345 345 346 344 343 342 342 342 341 339 337 337 335 333 332 332 332 330 331 331 331 330 329 329 328 328 327 328 331 330 330 332 331 329 329 329 329 329 329 329 329 329 329 329 328 328 329 330 330 328 326 326 325 323 321 318 317 318 319 319 320 321 322 321 318 317 320 320 319
312 312 312 311 309 311 313 312 313 312 312 312 310 312 313 313 314 324 330 330 331 333 334 333 336 340 340 343 346 345 345 344 342 342 342 341 341 340 337 336 334 332 332 333 331 330 332 332 331 330 329 328 329 328 327 328 331 329 328 330 330 329 329 329 329 329 329 329 329 329 329 329 329 330 330 329 330 329 328 327 326 324 322 319 317 318 321 323 322 321 322 322 319 317 319 320 320
313 313 309 310 311 311 313 313 312 313 312 311 312 312 313 312 316 325 326 325 327 325 329 332 334 338 338 342 345 345 345 343 342 341 342 341 341 340 338 336 334 333 333 332 331 331 333 333 331 330 330 329 329 329 328 329 330 328 328 329 329 330 330 330 330 329 329 329 329 329 329 330 329 330 330 330 330 330 329 328 327 326 326 323 320 321 326 326 325 324 323 322 320 317 319 321 321
313 314 310 312 312 310 313 313 312 312 311 311 312 311 313 311 314 329 335 333 332 328 331 333 336 340 340 343 343 343 344 343 342 341 342 342 341 340 337 336 335 333 333 332 331 332 333 333 332 330 330 330 330 329 329 329 330 329 329 329 330 330 330 330 330 330 329 329 329 329 330 330 330 330 331 331 330 330 330 330 328 327 328 327 324 326 329 328 327 326 323 322 320 318 320 321 322
312 313 311 311 311 311 313 312 312 312 311 311 311 311 311 312 317 335 340 337 339 337 336 337 338 340 341 343 343 342 342 341 341 342 342 343 342 340 338 336 335 333 333 332 332 332 333 333 332 331 330 331 330 330 330 330 330 330 330 330 330 330 331 331 330 330 330 330 329 330 330 331 331 330 331 331 331 330 330 330 329 329 329 329 327 328 330 329 329 327 324 322 320 321 323 323 322
311 311 310 310 310 312 312 312 313 312 311 310 311 311 312 317 326 340 341 338 340 339 337 338 338 340 341 342 341 341 341 340 340 341 343 343 342 341 339 337 335 334 333 332 332 332 332 333 332 331 330 330 330 330 330 330 330 330 331 331 331 332 332 332 331 331 330 331 331 331 331 331 332 331 331 331 331 330 330 330 329 330 330 330 329 329 330 329 330 328 325 322 321 324 325 323 323
311 310 310 311 310 311 311 312 313 311 311 310 312 312 314 323 331 341 342 338 339 338 338 339 338 340 340 341 340 340 340 339 340 341 343 343 341 341 338 337 335 334 333 333 333 332 333 333 332 330 330 330 330 331 331 332 333 333 334 334 333 334 333 333 332 331 332 332 333 332 331 331 332 332 331 331 331 331 331 330 330 330 330 330 329 329 330 330 329 329 327 323 321 325 326 324 324
311 310 311 312 310 311 311 311 310 310 312 310 313 311 312 322 331 340 342 338 338 337 338 339 339 341 340 339 339 339 339 339 340 342 343 341 340 339 338 337 336 335 335 334 334 334 334 334 332 331 331 331 332 333 334 334 336 336 336 336 335 335 334 334 333 332 332 333 333 332 332 331 332 332 331 331 331 331 330 330 330 330 330 330 330 330 330 329 329 328 328 325 322 323 325 325 325
312 311 313 316 312 314 311 309 309 310 313 311 312 311 312 317 321 334 341 338 339 338 338 339 339 340 339 339 338 338 339 339 341 342 342 341 339 338 337 337 336 336 335 335 335 335 334 334 335 334 332 334 336 337 337 337 337 336 335 335 334 335 335 335 335 334 333 332 333 332 332 331 331 331 330 329 327 329 330 330 330 330 330 330 329 330 330 329 328 327 328 328 325 323 324 325 326
313 310 312 316 316 318 312 308 309 310 313 312 311 312 318 316 314 332 343 338 339 338 338 339 339 340 338 337 338 337 338 339 342 342 341 340 339 338 337 336 336 336 335 334 335 336 335 335 337 336 335 337 337 336 336 335 335 334 333 333 333 334 334 334 334 334 332 331 332 332 331 330 331 330 330 328 325 327 329 330 329 330 330 329 329 330 330 329 329 327 327 328 327 327 326 327 327
313 310 314 315 313 320 316 309 311 311 312 312 311 313 318 319 321 336 343 337 339 338 338 339 338 339 337 337 337 337 338 340 341 341 340 340 339 338 336 336 335 334 334 334 334 335 336 336 335 337 338 337 336 334 333 333 332 331 331 331 332 332 332 332 332 332 331 330 331 332 330 330 330 330 329 327 325 326 329 329 328 328 329 329 329 329 329 329 329 328 327 327 328 328 329 329 329
316 311 319 319 312 319 320 310 311 313 312 311 311 314 317 322 331 341 342 338 339 337 338 339 338 338 336 337 337 337 338 339 341 340 340 340 338 337 335 335 335 334 334 334 335 335 337 337 336 337 337 335 333 332 331 330 329 328 329 330 331 331 331 331 330 331 331 330 330 331 330 330 330 329 328 326 324 325 328 329 328 328 329 329 329 329 329 328 328 328 328 328 327 328 329 328 328
324 315 319 320 314 318 319 313 310 311 312 311 310 318 325 328 334 341 341 339 339 337 338 338 337 337 336 337 336 336 338 339 340 339 340 339 337 335 334 335 335 335 332 328 332 334 335 337 337 336 336 332 330 330 329 327 326 325 327 328 329 329 328 328 328 328 329 329 329 330 330 330 329 329 328 327 325 326 328 329 329 328 329 328 328 329 328 328 328 328 328 328 327 327 328 328 327
325 321 322 320 316 316 317 317 313 309 311 313 311 319 327 328 334 342 342 340 339 338 338 337 337 336 336 337 336 336 337 338 339 339 339 338 336 334 333 334 334 331 325 323 326 329 331 334 333 334 334 331 329 328 328 326 325 324 325 326 327 326 326 326 326 327 328 328 328 328 329 330 330 329 329 328 328 326 327 328 328 329 329 328 328 328 329 328 327 328 329 328 327 326 327 327 327
320 320 321 319 318 316 317 319 316 312 313 313 311 315 316 322 335 343 341 341 340 338 338 338 337 336 336 336 336 335 337 339 340 340 339 337 336 334 332 334 332 325 321 321 325 328 331 330 329 331 331 329 327 328 327 326 323 322 323 325 325 326 326 325 324 325 326 327 327 328 329 330 330 329 329 329 328 327 327 327 328 328 329 329 329 328 329 328 327 327 328 329 328 327 327 326 326
319 317 317 318 319 318 317 318 316 313 313 313 312 314 312 323 337 343 341 341 340 339 339 338 337 336 336 336 336 336 337 340 340 340 339 338 337 335 334 334 329 322 320 323 327 331 332 330 329 330 329 328 328 327 326 323 319 318 321 323 325 325 324 324 323 323 324 325 326 327 327 328 329 329 328 328 328 328 328 327 328 328 328 329 329 329 329 328 326 325 327 328 328 328 327 326 326
315 315 317 317 317 318 318 317 316 313 312 313 314 316 317 326 337 342 341 341 340 340 339 338 338 336 336 336 336 336 338 340 340 340 339 338 338 336 336 335 328 321 321 324 327 330 330 329 330 328 328 327 327 326 321 317 315 316 319 321 323 324 323 323 323 322 322 322 325 326 327 328 328 329 328 328 328 328 329 328 328 328 328 328 328 328 328 327 325 324 325 326 327 328 328 327 327
315 315 317 317 317 319 318 316 317 315 312 312 313 319 321 326 337 343 340 340 340 340 338 337 338 337 336 336 335 336 338 340 340 340 339 338 337 335 335 336 331 323 320 322 323 327 329 329 329 328 328 326 325 324 318 314 315 316 319 320 321 321 321 321 321 320 318 318 321 325 327 328 328 328 328 328 328 328 328 328 328 327 327 327 327 327 327 327 325 325 325 325 326 328 328 327 328
318 317 317 318 318 318 318 319 321 317 316 314 314 319 321 322 330 336 338 340 339 338 338 337 337 337 336 336 336 336 337 339 339 339 339 338 336 334 334 335 332 326 322 321 322 325 329 329 329 329 328 326 323 319 315 315 315 314 318 319 319 320 320 320 319 318 316 315 316 318 322 326 327 327 327 327 327 327 327 327 326 326 326 326 326 326 326 326 326 326 326 326 325 327 327 326 327
321 319 317 318 317 315 317 322 323 320 319 318 318 320 319 320 325 328 331 334 334 335 336 336 336 336 336 335 336 336 336 338 338 338 338 337 336 333 332 333 332 328 325 324 324 325 328 330 330 329 328 325 319 316 314 314 314 314 317 318 318 318 318 319 317 316 314 314 314 312 314 321 326 327 326 326 326 325 325 325 325 325 325 325 325 325 326 326 326 326 326 326 326 327 328 326 326
322 321 319 320 319 316 316 320 325 327 322 320 324 324 319 322 327 328 326 326 329 333 333 334 335 335 335 334 334 335 336 338 337 337 336 337 335 332 331 332 331 329 326 326 327 327 328 330 330 329 328 323 316 314 314 314 314 314 315 316 315 315 315 315 315 313 312 312 313 311 309 314 320 324 325 325 324 323 323 322 322 322 322 322 324 324 325 325 326 326 327 327 327 328 327 327 327
322 324 322 321 322 320 319 322 328 331 322 317 321 321 319 324 328 327 323 323 329 332 331 333 333 333 334 334 334 334 336 337 337 336 335 334 334 331 331 331 330 328 327 327 329 328 329 330 329 329 327 321 315 314 314 314 314 314 315 314 313 313 314 314 312 311 311 310 309 308 307 307 309 314 318 320 320 319 317 316 315 315 316 319 322 324 324 324 324 325 326 327 327 327 326 326 327
320 322 321 321 323 320 322 323 323 323 320 316 319 320 321 326 326 322 319 322 330 332 331 331 332 332 333 333 333 334 335 337 337 335 333 333 332 331 331 330 330 328 328 329 329 329 329 330 329 328 325 318 314 314 314 313 314 315 315 314 314 315 315 314 311 308 308 308 307 307 306 306 306 308 312 314 315 315 314 314 315 316 318 321 323 323 323 323 323 323 324 325 326 326 326 326 326
321 320 318 320 321 319 324 327 322 323 320 319 324 325 322 322 322 321 320 323 330 332 332 330 329 331 333 333 333 334 335 337 337 335 333 332 331 331 331 330 329 329 329 329 329 329 329 329 328 327 323 316 313 314 314 313 314 315 315 314 315 316 317 315 311 307 307 307 307 307 306 306 307 308 311 314 316 317 314 316 319 320 322 323 323 322 322 322 322 323 323 323 324 324 324 325 325
323 320 317 320 320 323 331 331 327 326 319 319 329 326 320 326 329 324 322 326 332 334 334 330 328 329 331 333 333 332 334 335 336 335 333 332 331 330 330 330 328 329 329 328 329 329 329 329 328 326 321 314 313 313 313 313 315 316 316 316 316 317 317 315 311 308 307 307 307 307 307 308 308 308 311 314 318 318 316 318 321 322 322 322 322 321 321 321 321 321 321 320 320 321 322 323 323
319 317 316 318 320 326 332 330 327 327 321 321 328 321 316 327 335 325 317 322 331 336 333 327 325 327 330 332 332 332 332 333 334 333 332 332 331 331 330 329 328 329 329 328 329 329 329 328 327 326 321 314 312 313 312 313 314 316 317 317 318 319 318 316 311 308 307 307 307 307 307 308 308 309 311 313 316 318 317 317 319 320 321 321 320 321 320 320 318 317 315 315 316 317 319 321 322
313 318 319 317 323 328 332 332 327 323 323 324 326 322 317 321 330 328 319 318 324 328 326 324 324 326 328 330 332 332 331 332 333 332 331 330 330 331 330 329 329 329 329 329 329 329 328 328 327 326 319 313 312 312 312 313 314 317 316 316 318 321 320 318 313 308 307 307 307 306 306 306 307 308 310 311 315 318 317 316 316 316 316 316 316 317 316 313 311 309 308 311 314 315 318 320 319
315 323 322 317 322 326 327 329 325 320 325 326 324 322 317 318 324 323 320 320 319 319 318 319 321 323 326 329 330 332 331 331 331 331 331 330 329 329 330 331 331 330 329 328 328 328 328 328 327 325 318 313 313 311 311 312 314 317 316 317 320 322 321 320 316 309 307 307 306 306 306 305 306 306 307 310 314 317 317 316 313 310 309 309 309 309 306 304 303 303 306 310 313 315 316 315 314
318 321 322 320 321 322 321 324 323 323 324 322 321 321 317 323 325 317 317 319 317 315 314 313 313 317 323 327 328 330 330 330 330 330 330 330 330 329 329 332 332 331 330 328 328 328 329 329 327 323 317 314 313 313 312 312 314 316 318 319 322 322 322 320 316 310 307 307 306 306 306 305 306 305 306 309 313 317 317 314 308 305 305 306 306 305 304 304 304 304 305 307 308 309 309 308 306
316 317 322 322 320 319 318 319 319 321 323 319 319 319 319 324 322 316 318 319 317 317 317 316 315 315 321 325 327 329 329 330 329 329 329 329 329 328 328 331 332 332 331 329 329 329 329 329 327 322 317 314 313 311 311 312 313 316 319 322 322 323 321 316 313 310 308 307 306 305 305 305 305 305 306 308 312 314 313 309 305 305 305 306 305 306 306 305 305 305 305 305 305 306 305 305 305
313 316 318 319 324 323 319 320 322 321 321 320 316 316 322 325 318 315 317 317 319 321 321 322 321 321 324 325 327 329 328 329 329 328 329 328 329 329 329 331 332 331 331 330 330 330 330 330 328 323 319 316 315 315 317 318 319 319 319 320 322 321 316 310 312 314 310 307 306 306 305 306 305 305 305 307 309 310 308 306 305 306 306 305 306 306 306 306 306 306 306 305 305 305 305 305 305
311 312 314 316 322 326 320 316 321 324 321 320 317 316 323 324 317 315 317 319 321 321 321 323 323 323 325 325 325 327 327 328 328 328 329 329 330 331 330 331 331 331 331 331 331 330 330 330 329 326 322 319 319 319 320 319 318 316 315 317 319 318 312 310 315 316 310 306 306 306 305 306 305 305 305 306 307 306 305 305 306 306 306 306 306 305 305 305 305 305 305 305 305 304 304 304 304
313 311 315 316 315 323 324 314 315 322 321 320 317 317 323 323 318 318 322 325 324 322 322 321 321 323 324 324 325 325 325 325 325 326 328 329 330 330 331 331 331 331 330 330 330 329 330 331 329 327 324 322 322 321 321 318 315 314 315 316 317 316 312 313 314 311 308 307 306 306 306 306 305 305 305 305 306 305 305 305 305 306 306 306 305 305 305 305 304 304 304 304 304 304 304 304 304
316 313 315 314 311 318 325 321 320 319 319 321 317 316 324 326 324 322 322 325 325 324 324 321 320 323 322 323 324 324 324 324 323 323 324 326 327 327 329 330 330 330 329 330 329 328 330 332 329 327 327 325 325 325 325 323 320 319 318 316 315 314 314 314 312 310 309 307 306 306 306 306 306 306 305 305 305 305 305 305 305 305 306 306 306 305 305 305 305 305 305 305 306 306 306 306 306
313 314 312 313 316 318 318 320 322 318 317 320 316 315 320 326 329 324 319 324 326 324 324 323 321 321 321 322 323 322 321 320 321 321 320 321 320 320 324 327 328 328 328 328 328 328 330 332 331 330 329 328 328 327 327 326 325 323 321 319 316 314 313 313 312 313 311 308 307 307 306 306 306 306 306 306 305 305 305 305 305 305 306 306 306 305 305 305 305 305 305 306 307 307 307 308 308
309 312 312 316 322 321 317 318 321 321 320 319 317 318 321 325 329 323 318 325 327 324 325 325 321 320 321 322 322 321 321 321 321 321 319 318 317 319 325 327 327 327 326 327 327 327 329 330 331 331 330 329 329 328 327 327 326 324 322 321 317 313 313 313 314 316 313 307 307 308 307 307 306 306 306 306 306 306 306 306 305 306 306 306 306 306 306 306 305 305 306 305 306 306 306 307 307
313 317 317 317 316 314 315 316 315 320 324 322 319 319 323 326 324 320 319 322 324 325 325 322 320 320 321 321 321 322 323 323 323 323 321 320 321 323 326 327 327 327 326 327 328 328 328 328 329 329 328 328 329 328 327 326 325 324 323 322 317 313 313 314 315 316 312 307 307 308 307 307 307 306 307 306 306 306 306 306 306 306 306 306 306 306 306 306 306 306 306 306 306 306 306 306 306
318 319 315 316 316 315 317 314 312 318 323 321 322 323 324 321 316 316 320 320 319 320 321 319 319 321 320 321 323 323 324 324 323 324 324 324 324 325 326 326 326 326 326 327 328 328 328 327 327 327 327 327 327 327 327 326 325 324 323 322 318 314 315 316 316 317 312 308 308 307 307 308 307 307 307 307 307 306 306 307 307 307 307 306 306 306 307 307 307 307 306 306 307 307 307 306 306
Wind_Speed
12 12 10 10 14 13 8 5 2 2 2 1 3 1 4 4 2 2 4 5 4 3 5 5 4 6 8 10 13 13 8 3 4 3 4 6 12 21 28 29 29 29 29 30 30 28 25 24 23 23 23 22 20 18 16 14 14 15 15 15 15 15 15 15 16 16 16 16 15 15 14 14 14 13 13 13 14 14 13 11 10 9 8 8 6 7 9 9 9 10 11 12 12 12 11 12 12
13 12 11 12 13 10 5 3 1 2 3 2 4 3 4 3 1 2 4 6 2 4 12 14 14 14 15 18 16 12 10 6 5 8 9 12 19 26 29 29 29 30 30 30 30 29 26 25 23 23 24 23 21 19 17 15 14 14 15 15 15 15 15 14 14 14 14 14 14 14 13 13 13 13 13 13 13 14 14 12 11 10 8 6 6 6 7 8 10 10 10 12 12 12 11 12 12
13 12 12 13 11 6 4 2 1 1 3 2 5 4 3 1 2 4 3 6 3 7 8 9 11 10 9 11 8 6 5 6 9 14 15 18 26 30 31 30 31 30 29 29 29 29 27 26 24 24 24 24 23 21 18 15 13 13 14 15 15 15 14 14 14 13 13 14 14 14 13 13 13 12 12 13 13 13 13 12 11 10 9 7 7 9 9 8 9 8 9 11 11 12 12 12 13
12 13 13 12 8 4 4 2 2 4 3 3 4 5 4 2 3 4 5 8 3 7 3 7 8 8 7 7 6 7 7 7 11 15 19 23 28 31 32 32 31 30 29 29 30 28 27 25 24 23 24 25 24 22 19 16 14 13 14 14 14 15 14 14 13 13 13 13 14 13 13 13 12 11 12 12 12 12 12 11 11 10 9 8 7 9 10 8 7 6 7 10 11 12 12 12 13
12 13 12 9 5 2 3 2 2 4 4 4 2 5 5 5 3 3 6 9 4 10 3 6 3 7 12 8 3 4 8 11 12 14 22 26 27 31 32 32 31 30 29 29 29 28 26 24 22 23 24 26 25 23 20 17 15 14 13 14 14 15 14 14 14 13 13 13 13 13 12 11 11 11 10 10 11 11 10 9 9 9 7 7 7 8 9 7 7 5 5 10 12 12 12 12 12
12 13 9 6 3 2 3 2 2 2 5 4 2 6 5 5 5 5 5 8 6 11 6 4 6 7 8 7 6 8 9 10 10 14 24 27 26 29 31 31 32 30 29 28 27 26 25 23 22 22 24 25 25 24 21 18 15 14 13 14 15 15 14 14 13 13 13 13 12 12 11 10 10 10 10 10 10 9 9 8 8 8 7 6 7 7 6 5 8 7 5 10 13 12 13 13 12
13 11 7 5 2 2 3 3 4 4 4 4 4 7 7 6 7 4 2 5 4 3 4 8 14 11 4 3 6 8 6 7 11 17 24 27 26 27 30 31 31 30 29 27 26 25 23 22 21 21 23 24 24 24 22 20 16 15 14 14 15 14 14 13 13 13 13 12 11 10 10 10 10 10 10 9 9 8 8 8 7 7 7 7 7 6 6 7 8 7 6 9 12 13 13 13 12
12 8 5 5 2 2 3 2 4 3 3 4 4 7 11 13 12 6 2 0 3 3 10 15 14 9 3 1 3 5 5 6 12 18 23 25 25 26 29 31 31 30 29 27 25 23 20 19 19 21 23 24 22 22 21 20 18 15 14 14 14 13 13 13 13 13 12 12 11 11 11 11 11 11 10 9 9 8 8 8 7 7 7 7 7 6 7 9 10 8 7 7 10 12 13 13 13
11 6 3 3 2 2 1 2 4 3 4 5 4 9 16 19 14 7 3 3 4 5 11 12 8 6 5 5 5 5 6 6 11 18 21 22 22 25 29 30 31 31 29 27 25 22 20 20 19 19 22 23 22 21 20 19 18 16 14 14 13 12 12 13 13 13 13 12 11 12 12 12 12 11 10 10 10 9 8 8 7 7 7 7 7 7 7 8 10 9 8 7 10 12 13 13 13
9 4 3 2 3 1 2 3 2 3 5 5 6 13 17 18 13 8 5 5 8 8 7 8 9 12 10 6 6 6 7 7 13 18 19 22 22 26 30 30 30 30 29 26 25 22 21 21 20 19 20 23 22 21 20 18 17 15 14 13 12 12 12 13 14 14 13 13 13 13 13 12 12 11 11 10 10 9 8 7 7 7 7 8 7 8 7 7 8 10 10 9 10 12 13 14 13
5 2 3 4 3 3 4 3 3 4 5 4 7 13 15 15 12 7 4 5 10 12 11 10 11 15 12 4 5 6 10 10 14 19 19 22 23 28 31 30 31 30 29 28 26 22 19 20 20 19 18 21 22 21 19 17 16 15 14 13 13 13 13 13 14 14 13 14 14 14 13 12 12 11 10 10 9 9 8 8 7 7 7 7 7 7 7 7 8 9 10 10 11 13 14 14 14
3 0 4 3 2 4 4 2 3 5 5 4 5 11 17 14 8 3 4 6 10 14 12 10 12 15 9 3 6 9 14 13 15 19 19 22 25 29 31 31 31 30 29 29 27 24 21 20 20 20 18 19 20 20 19 17 16 15 14 13 13 13 13 14 14 14 14 15 15 14 13 12 11 10 10 9 9 9 8 8 7 7 7 7 6 6 7 7 7 9 10 11 12 14 15 15 15
4 2 5 2 3 3 3 2 3 4 5 3 4 13 21 12 6 3 8 11 10 8 5 11 19 15 6 4 9 13 17 17 16 19 21 24 27 29 31 31 31 30 28 28 25 23 22 21 20 20 20 20 20 19 18 17 17 16 15 14 14 14 14 14 15 15 15 15 14 13 12 10 10 9 9 8 9 8 8 7 7 6 6 6 6 6 6 6 6 7 9 11 12 14 16 17 15
4 4 4 3 1 2 3 2 1 1 3 4 3 14 18 12 8 7 13 11 5 4 8 18 22 12 6 7 7 14 19 20 18 19 23 25 28 29 30 30 29 29 27 25 23 22 23 22 21 21 22 22 22 21 19 18 18 17 16 16 15 15 15 15 15 15 15 14 13 11 10 9 8 8 8 8 8 8 7 7 7 6 6 5 5 5 5 5 5 5 7 11 13 14 17 18 17
5 3 4 2 1 1 2 2 2 4 3 4 3 14 14 13 10 8 10 6 5 11 18 20 15 5 9 11 9 19 22 22 20 20 26 26 29 29 30 29 28 28 25 24 23 24 23 23 25 24 24 25 25 25 22 21 20 19 18 17 17 16 16 16 15 15 14 13 12 10 9 8 7 7 7 7 7 7 7 7 6 6 6 5 4 4 4 5 5 4 5 9 12 14 16 19 18
4 2 4 1 1 1 2 3 2 2 4 5 4 14 11 11 12 10 6 7 12 16 15 12 7 1 13 15 15 28 24 23 21 22 28 27 30 30 30 29 28 28 26 26 25 24 25 26 27 26 25 24 25 24 22 22 20 20 19 18 18 17 16 16 15 14 13 12 11 10 9 7 7 6 7 6 6 6 6 6 6 6 6 4 3 3 3 3 4 4 4 7 10 12 14 18 19
4 2 4 0 3 3 3 4 3 3 5 5 5 13 7 5 11 12 8 15 17 11 6 4 4 3 16 14 17 31 25 23 23 25 30 29 31 31 31 30 29 30 28 28 26 25 27 27 26 25 24 23 23 22 21 20 19 19 19 19 18 17 16 15 14 13 12 11 10 10 8 7 6 6 6 6 5 5 5 5 5 5 5 4 3 2 2 2 3 3 3 5 8 10 12 16 19
3 3 2 2 3 3 4 6 5 4 3 5 7 11 5 4 5 11 10 12 13 10 8 6 3 5 16 12 18 31 25 24 24 28 32 31 33 33 33 32 32 32 30 30 27 27 27 27 26 24 23 22 22 20 20 21 20 20 19 19 18 16 16 15 14 13 13 12 10 9 7 6 6 5 5 4 4 4 4 4 4 4 4 3 3 3 2 2 3 3 3 4 7 9 10 13 17
4 3 2 4 4 4 5 6 4 3 3 7 11 11 5 8 3 11 6 3 6 8 8 8 11 12 15 15 25 31 26 25 25 29 32 32 35 34 35 34 33 32 31 31 29 28 27 26 26 23 22 22 21 21 21 21 21 20 19 19 18 17 16 15 15 14 13 11 10 8 7 6 5 4 4 3 3 3 2 3 3 3 2 3 3 4 3 3 2 3 4 4 6 8 9 11 15
3 3 2 5 5 4 5 6 9 8 6 8 10 11 10 12 5 7 8 5 3 4 5 7 12 17 18 23 31 30 26 25 25 29 32 33 35 35 36 36 35 33 32 32 30 29 27 26 25 23 22 21 21 21 21 21 21 20 19 19 18 17 16 15 14 13 13 11 10 8 7 6 5 4 4 3 3 2 2 2 2 1 1 2 3 4 3 4 3 3 4 4 6 8 8 10 14
2 3 4 4 4 3 7 10 13 13 8 7 8 10 12 10 5 5 13 9 1 7 12 10 16 24 25 29 33 28 27 26 26 29 32 34 34 35 36 36 34 32 32 31 30 28 26 24 23 22 21 21 21 21 22 21 20 19 19 18 17 16 15 14 14 13 12 11 10 8 6 6 5 4 3 3 3 3 2 2 2 1 1 1 3 4 4 4 4 4 4 5 6 7 8 9 13
1 3 6 5 5 2 7 9 9 10 7 8 6 5 9 8 5 5 11 6 3 8 14 12 19 27 27 32 34 29 28 28 28 30 32 34 34 35 36 35 33 31 32 31 29 27 24 22 20 21 21 22 21 20 20 19 18 18 16 16 15 14 14 13 13 12 11 10 9 7 6 6 5 4 3 3 3 3 3 3 2 2 2 1 2 3 4 4 5 5 5 6 6 7 8 9 12
2 4 4 6 6 4 9 9 7 8 7 8 6 6 10 7 3 3 4 4 5 7 12 14 18 24 27 33 35 32 32 31 31 32 32 33 33 35 35 35 32 30 31 30 28 25 23 22 21 22 22 21 20 18 18 16 16 16 15 14 13 13 12 12 11 11 10 9 8 7 6 6 5 5 4 3 3 3 3 3 3 3 2 2 2 3 3 4 4 5 6 7 7 8 9 9 12
4 3 3 7 8 8 13 13 11 12 11 14 13 10 12 9 3 1 1 4 5 6 12 16 19 25 30 33 35 34 33 32 32 32 31 30 31 34 35 34 32 29 29 29 27 25 24 23 22 22 21 20 18 17 15 15 14 14 14 13 12 12 12 11 9 9 9 8 8 7 6 6 6 5 5 4 3 4 4 4 3 3 3 3 3 3 3 4 4 4 6 7 8 9 9 9 11
3 4 4 5 7 10 15 15 16 17 16 18 13 10 15 12 4 3 1 1 2 7 14 17 21 28 32 34 34 33 32 31 32 32 30 29 30 34 35 34 32 28 28 29 27 26 25 23 23 22 21 19 16 16 15 14 13 12 13 12 12 12 11 10 9 8 8 8 8 7 7 6 7 7 7 5 4 4 5 4 4 4 4 4 5 5 5 5 4 4 5 8 9 9 9 9 11
5 8 6 4 8 13 14 14 16 15 14 12 6 9 15 7 6 2 1 4 9 13 16 18 23 31 34 34 33 33 32 32 32 32 31 30 30 32 33 33 31 29 29 29 27 25 24 22 23 22 19 17 16 15 14 13 12 12 12 12 12 11 11 10 10 9 9 9 8 8 8 8 9 9 8 6 5 5 5 5 5 4 5 5 6 7 7 7 6 4 5 8 10 10 9 9 10
5 8 7 8 11 14 11 11 15 11 10 10 9 7 8 8 6 1 5 9 13 16 17 18 25 32 34 33 33 32 32 32 31 31 32 31 30 30 30 31 30 29 29 28 26 24 22 21 21 21 18 16 15 14 13 13 12 12 11 11 12 11 11 11 10 10 10 9 9 10 10 9 10 9 8 7 6 5 6 6 6 6 7 6 7 7 7 7 6 5 5 7 10 11 9 9 10
5 4 4 9 8 10 9 9 14 8 5 12 15 5 1 7 3 4 10 12 14 17 18 18 25 30 32 31 31 31 32 32 30 31 32 30 28 28 28 30 30 29 28 25 23 22 21 19 19 19 17 15 14 13 12 12 11 11 10 11 11 11 11 11 11 11 11 10 11 12 10 9 10 9 8 6 5 6 6 6 8 9 9 7 7 7 7 7 7 6 6 6 9 11 9 9 10
4 1 2 7 7 7 7 5 8 6 3 10 13 3 2 3 4 6 15 16 15 17 18 19 23 28 30 30 30 30 31 31 30 30 30 27 26 26 27 29 29 28 26 22 20 20 20 18 16 17 17 14 13 11 11 11 11 11 11 11 11 11 11 11 11 11 11 9 10 11 9 10 11 10 8 6 7 8 8 8 8 9 9 8 7 8 8 8 8 7 6 6 7 9 10 9 10
3 1 1 4 7 6 5 1 3 6 3 7 11 2 5 6 7 10 19 21 19 17 18 19 22 28 29 30 30 29 30 30 30 29 27 25 25 26 28 29 27 25 23 21 19 18 17 16 14 15 15 13 12 11 11 11 11 11 11 11 12 12 11 12 12 11 10 9 10 10 9 10 11 9 7 7 8 9 10 10 8 8 8 7 7 8 8 8 9 7 7 7 7 8 9 10 10
1 1 2 2 2 4 7 1 4 5 5 9 11 3 7 7 7 14 21 22 23 20 19 20 23 28 29 30 30 29 29 29 30 29 27 25 25 26 27 26 24 22 19 17 17 16 16 15 14 15 14 13 12 11 11 11 10 10 10 11 10 10 10 11 11 10 10 8 9 10 8 8 9 8 7 6 7 9 11 10 9 8 7 6 7 8 7 8 9 8 8 8 8 8 9 9 10
2 1 2 3 2 4 9 4 6 6 4 6 8 3 6 7 7 18 22 22 23 19 20 21 23 27 29 30 29 28 28 29 30 28 26 25 25 25 23 22 21 18 15 13 14 15 16 16 15 15 14 13 12 11 10 10 8 8 9 9 9 9 9 9 8 7 8 7 7 9 7 6 7 7 6 6 7 9 10 9 10 9 7 6 7 8 8 8 8 9 9 9 9 10 10 10 10
4 2 2 2 1 2 6 4 5 7 1 2 6 3 3 5 8 18 20 21 19 15 18 20 22 26 28 28 27 26 27 28 30 28 26 26 24 23 21 20 17 15 13 12 12 11 13 14 14 13 13 13 11 11 10 8 7 7 8 9 8 8 7 7 6 7 8 8 7 8 7 5 5 6 7 8 8 8 9 10 11 10 8 7 7 9 9 8 8 9 10 10 10 11 11 11 11
4 2 0 2 2 1 3 5 4 2 2 3 3 4 5 6 6 17 19 20 16 13 17 19 22 25 25 24 25 25 26 29 30 28 27 27 24 22 21 19 17 16 15 14 13 10 11 13 13 12 13 12 11 11 10 8 6 6 7 8 8 7 6 6 6 8 8 8 7 7 7 5 4 5 7 8 9 8 8 9 10 10 10 9 8 9 9 9 9 9 11 11 11 12 12 13 12
2 1 1 2 3 2 3 5 4 3 1 4 3 4 8 5 5 16 18 20 17 14 17 18 19 21 22 24 25 25 26 29 29 28 28 27 24 23 22 20 21 20 19 18 17 15 15 14 13 13 13 12 11 11 10 7 5 4 5 6 6 5 5 6 6 7 8 7 7 7 6 5 4 5 6 7 8 8 9 9 9 10 11 10 10 10 10 11 10 10 11 12 12 12 12 13 12
6 4 3 3 3 4 5 6 5 1 1 5 5 5 6 3 8 14 17 20 19 16 16 14 15 18 21 24 25 25 27 29 28 26 28 27 26 25 23 22 24 23 22 21 20 18 18 16 15 15 14 12 11 11 8 5 3 3 3 5 5 3 3 4 4 5 5 5 5 6 6 4 4 5 5 6 7 8 9 10 10 11 11 12 11 11 12 12 12 11 12 13 13 13 13 13 13
5 3 2 3 3 4 6 6 6 2 5 4 5 7 6 7 10 11 15 17 14 15 16 14 15 18 22 25 26 26 27 27 26 26 27 27 26 26 23 24 27 25 22 22 20 19 19 17 16 15 13 11 11 9 6 4 3 2 4 5 4 4 2 2 2 2 3 3 3 4 5 4 3 5 5 5 6 6 8 9 10 10 10 11 12 12 13 14 13 12 12 13 13 13 14 14 14
3 2 1 3 3 5 7 5 6 2 3 2 2 7 5 4 7 8 12 12 11 17 19 16 17 20 23 26 27 27 26 26 26 27 27 27 27 26 24 27 29 26 23 20 19 19 19 19 18 16 13 11 11 9 6 4 3 3 4 5 5 4 2 1 1 0 1 2 3 3 2 2 3 4 3 3 3 4 6 6 6 7 8 9 11 12 13 14 13 12 13 13 14 15 15 15 16
3 2 2 2 3 4 7 5 4 3 1 1 2 6 1 3 3 4 7 8 10 16 17 14 16 20 25 28 26 25 25 25 26 26 27 27 27 26 27 29 30 27 24 19 18 20 21 20 19 16 14 13 11 10 8 6 4 4 5 5 4 4 3 2 2 2 2 1 2 2 3 2 1 2 1 1 2 4 4 4 4 6 7 8 9 11 13 13 13 12 12 13 15 16 16 17 18
3 3 3 3 4 0 3 4 4 5 2 3 5 5 3 4 1 2 3 4 4 8 13 12 14 20 24 24 23 24 25 25 25 26 27 27 27 27 28 31 30 28 25 20 20 23 23 22 20 17 15 14 12 11 10 7 6 6 7 6 4 4 4 4 4 4 4 3 2 2 3 2 1 1 2 2 3 3 4 4 5 5 5 6 6 8 9 9 10 10 11 12 14 15 15 17 18
3 4 5 3 4 4 4 4 5 5 4 4 7 5 4 2 1 3 3 2 1 4 11 12 14 18 20 20 21 23 25 26 26 26 26 27 28 28 28 30 30 28 25 22 22 24 24 22 20 18 16 15 14 13 11 9 7 7 8 6 4 4 4 5 5 5 4 4 3 2 3 3 3 3 4 4 5 5 6 6 7 7 7 6 5 5 5 6 6 7 9 10 12 14 13 15 16
3 4 8 8 5 5 4 2 5 5 4 3 4 4 3 5 2 5 3 2 1 4 9 12 15 18 20 21 21 22 24 25 27 27 26 28 28 29 28 28 29 27 25 23 23 23 23 22 20 19 18 17 16 15 12 10 9 8 7 4 3 4 5 5 6 6 5 4 4 3 2 3 4 4 4 5 5 5 6 6 7 7 6 5 4 4 3 3 3 5 7 8 9 11 10 12 13
2 5 7 7 5 3 1 3 3 2 0 1 3 5 2 5 4 3 2 3 3 2 5 10 16 20 23 24 21 21 24 25 27 27 27 28 29 29 29 28 28 27 25 24 23 22 22 21 20 20 19 18 17 15 13 11 10 9 6 2 2 4 5 6 7 7 7 6 6 5 4 3 2 3 3 3 3 3 3 3 4 3 1 2 3 2 2 2 2 2 3 4 5 7 7 8 10
2 5 6 8 6 4 2 5 4 2 2 2 4 4 4 1 4 3 2 3 3 4 5 8 14 20 24 25 22 22 25 27 28 29 30 30 30 30 30 29 28 26 25 24 23 22 22 21 21 21 20 18 17 16 14 13 11 9 6 3 1 2 4 5 6 7 7 7 7 7 6 4 2 1 2 2 2 2 2 1 1 0 2 1 2 3 3 4 4 4 3 2 1 1 2 5 6
5 5 7 6 5 5 4 6 3 1 1 2 6 4 4 2 5 4 4 3 4 7 8 8 12 20 24 25 24 23 24 27 29 31 31 32 31 31 29 28 26 25 25 25 23 23 23 23 23 21 20 19 18 17 16 14 12 9 6 3 2 3 5 6 6 6 6 7 8 7 6 4 3 1 1 2 2 1 1 1 1 1 2 2 2 4 3 3 3 3 4 4 5 5 3 1 2
4 6 6 5 5 5 4 5 3 3 3 3 6 4 3 3 5 4 3 1 5 7 7 8 13 20 23 26 27 25 24 26 29 30 30 31 31 30 28 26 24 25 26 26 24 24 24 24 23 21 21 20 19 18 17 16 13 10 6 3 3 5 6 6 6 6 6 7 7 7 6 4 3 2 2 2 1 0 2 3 3 2 2 1 1 2 1 0 0 1 1 2 3 5 7 7 6
5 6 6 6 6 5 3 4 4 4 2 5 6 2 3 1 5 3 0 2 4 5 6 6 10 18 23 26 28 28 26 26 28 28 28 28 29 29 27 25 24 25 27 27 25 25 24 24 23 22 22 21 20 19 19 17 14 10 7 4 3 5 6 8 8 7 7 8 7 7 6 5 4 3 2 1 1 2 2 3 3 2 2 1 2 1 0 1 2 2 2 4 6 7 8 9 9
5 5 5 4 4 5 4 4 4 4 2 6 5 3 3 2 3 3 4 7 5 5 7 5 6 15 24 26 28 28 26 25 26 26 27 27 28 29 28 25 24 25 27 28 27 26 25 25 24 23 23 23 22 21 20 18 15 12 8 5 4 5 6 8 9 9 9 9 8 7 6 5 4 3 2 1 2 2 1 2 2 1 2 4 4 4 4 3 3 4 6 8 8 8 8 7 7
5 5 5 4 2 3 2 3 1 2 4 3 3 2 2 3 4 4 5 8 7 6 8 8 8 14 20 23 24 24 23 23 23 25 26 26 27 29 30 27 23 25 28 30 30 29 28 25 23 24 25 25 24 22 21 19 17 14 10 7 5 4 5 7 8 8 9 9 8 6 6 4 3 3 2 1 2 2 1 2 2 4 7 8 9 9 9 10 10 10 10 10 9 9 7 6 6
4 5 4 4 3 2 1 2 1 2 4 2 4 3 1 3 3 2 5 7 8 7 6 5 8 13 15 18 20 20 20 20 21 22 23 24 25 27 29 27 23 24 27 31 32 31 29 26 25 27 28 27 25 24 22 20 18 14 10 7 6 6 7 5 3 4 5 7 7 5 4 3 2 2 1 1 2 2 1 2 5 8 9 9 9 10 10 11 11 11 11 11 10 10 9 8 8
3 4 5 5 4 4 3 3 2 2 2 2 4 2 2 3 2 5 5 6 7 7 6 6 6 8 13 17 18 20 19 20 21 22 21 21 21 22 24 24 22 23 26 29 31 31 29 27 28 30 29 27 25 23 20 16 13 11 11 10 9 9 8 6 4 3 3 5 6 4 3 2 1 1 1 3 5 5 4 5 6 7 8 8 8 8 8 9 10 10 10 10 9 10 9 9 9
1 2 5 3 5 5 3 3 4 4 2 0 2 2 2 3 3 6 5 7 9 9 10 12 13 15 17 19 18 18 17 16 18 20 20 18 16 16 17 18 19 21 24 27 29 29 29 29 31 30 27 25 23 20 17 15 15 17 17 17 15 14 11 9 7 7 5 5 4 3 2 1 0 0 2 5 6 7 7 7 6 5 6 6 6 7 8 9 10 10 10 10 10 11 10 10 10
1 2 3 4 4 7 6 2 1 3 4 2 1 2 4 2 1 4 5 6 7 8 8 10 13 17 20 20 20 20 17 15 10 6 11 12 10 10 12 14 17 20 23 25 27 28 28 29 29 27 24 22 22 22 22 23 25 26 25 22 21 19 16 13 11 9 8 6 5 4 3 2 1 1 2 4 6 7 7 7 6 5 4 5 6 8 8 10 11 12 12 12 12 13 13 12 12
5 3 5 3 3 5 5 3 3 4 3 3 2 1 4 1 0 4 5 5 5 6 5 6 10 15 18 18 21 22 20 19 14 5 3 7 6 3 8 12 16 19 21 22 23 24 26 26 24 22 21 21 23 24 24 25 26 27 27 26 26 23 18 17 15 11 9 8 7 5 4 3 2 2 2 2 4 5 6 7 6 5 4 5 6 8 9 10 11 12 13 13 13 14 13 13 13
4 5 4 3 3 2 2 3 2 2 2 2 3 1 2 2 3 3 1 1 2 4 4 5 6 11 15 15 19 20 17 16 13 6 2 6 6 1 8 10 12 14 17 18 17 19 23 24 23 21 19 19 21 22 24 25 27 27 25 24 26 24 20 18 16 11 10 12 11 9 7 5 4 3 2 2 2 3 4 5 5 5 4 4 4 6 7 8 9 9 10 11 12 12 11 11 12
4 3 3 2 3 4 2 3 3 4 4 2 1 2 2 4 4 3 4 6 4 1 1 3 4 9 16 19 20 18 15 15 17 15 11 8 8 9 9 8 9 10 12 13 13 16 20 22 23 22 18 17 18 18 20 23 25 25 24 23 24 26 23 19 17 13 13 16 16 13 11 8 6 5 4 3 3 2 2 3 4 4 3 3 2 3 4 5 6 6 6 7 7 8 8 7 8
3 3 2 2 2 3 2 2 2 4 5 3 2 1 4 4 3 3 5 6 5 4 3 2 3 7 12 16 19 19 18 20 18 15 13 13 12 10 8 6 6 8 9 10 10 12 15 17 19 18 15 15 17 16 16 19 21 23 24 23 24 27 25 21 18 15 14 16 17 16 14 11 9 7 6 5 4 3 3 3 3 4 4 4 3 2 2 2 3 3 3 3 3 3 4 3 3
5 3 2 3 3 4 4 2 1 2 4 4 4 2 5 4 2 4 6 6 4 4 5 3 3 7 7 10 17 18 17 18 15 11 10 9 8 7 6 5 5 5 6 6 5 5 7 9 11 11 9 10 12 13 13 15 18 21 23 23 24 28 27 24 21 18 16 17 18 17 16 14 12 10 9 7 6 5 5 4 3 3 3 3 3 2 2 1 0 0 0 0 1 1 1 1 1
Wind_Direction
165 156 156 151 156 154 152 146 133 333 87 244 274 236 257 235 248 306 316 310 299 333 52 58 87 120 119 121 123 101 63 105 165 147 173 184 162 163 163 167 168 167 167 166 170 170 172 175 175 175 173 170 165 163 162 158 156 155 153 149 146 145 145 145 144 141 140 138 136 135 133 133 132 130 129 127 124 122 122 124 125 128 127 117 112 131 139 136 130 130 140 142 148 151 148 147 146
151 150 149 147 154 155 172 145 103 326 67 322 270 186 253 290 288 241 317 316 274 81 75 69 75 84 95 108 109 86 51 60 143 139 142 160 156 157 161 167 170 169 168 168 170 170 172 175 175 176 174 171 167 166 164 161 157 156 156 153 149 146 145 145 144 142 139 137 134 132 131 131 132 132 132 129 126 124 123 122 120 116 120 112 81 90 113 125 125 122 134 142 148 152 152 152 151
147 147 143 145 151 154 155 94 83 111 104 236 265 233 245 290 205 188 326 322 177 116 73 46 49 53 81 96 66 63 84 92 132 139 141 157 155 156 164 169 171 171 170 169 170 173 174 175 177 177 174 172 170 169 167 164 160 157 157 155 152 147 145 145 143 143 140 138 136 134 133 133 134 134 133 131 128 128 127 125 123 114 114 108 80 84 91 101 112 110 126 139 144 147 149 151 153
141 140 142 145 143 138 108 64 127 123 153 212 266 267 227 217 190 183 326 338 176 159 57 33 48 39 60 89 59 76 109 132 143 145 147 157 158 158 166 170 172 172 170 170 172 174 175 175 177 177 174 173 171 170 169 166 162 157 157 157 155 152 149 147 146 145 144 142 140 138 137 137 137 135 134 132 130 129 127 126 125 120 114 105 93 103 109 108 107 102 122 135 136 138 141 145 151
134 136 145 153 146 147 104 80 120 126 201 186 235 264 232 215 199 212 306 336 248 206 160 59 69 50 59 69 50 93 119 143 150 152 152 159 162 161 166 171 172 172 171 171 173 174 176 176 177 177 174 173 172 171 170 168 164 159 158 159 159 157 154 151 151 151 151 149 146 144 142 142 141 139 138 133 131 130 128 127 126 123 116 109 107 121 129 129 130 134 137 134 130 134 143 146 149
136 135 142 152 144 149 120 124 162 203 222 166 207 270 261 219 211 224 282 323 286 215 199 85 108 86 61 47 59 111 129 145 159 160 157 161 164 164 167 171 172 172 171 171 173 175 175 176 176 177 175 175 174 172 171 169 168 165 162 161 160 159 158 157 156 156 154 152 150 149 148 147 144 142 139 135 133 133 132 127 125 123 119 117 118 131 139 137 144 154 150 138 139 146 156 157 156
144 142 141 136 102 98 119 165 197 223 243 179 194 271 283 268 262 269 342 330 329 186 171 117 118 106 71 33 80 113 134 161 169 165 163 164 164 167 170 171 173 171 171 172 174 175 174 174 172 173 175 175 175 174 172 171 171 171 168 165 163 160 160 162 163 162 158 155 153 152 150 147 145 141 137 133 129 128 126 122 120 120 120 121 121 129 134 127 131 140 141 145 156 161 164 163 163
153 154 151 131 60 37 105 194 228 214 245 233 215 253 275 284 291 306 70 224 292 127 129 127 119 100 79 68 90 110 130 161 170 167 167 167 164 167 172 172 174 172 172 173 173 172 168 167 168 170 174 175 175 174 172 171 172 173 172 172 170 167 166 167 168 167 162 159 157 151 146 143 141 138 135 130 124 121 120 120 119 117 116 117 119 124 128 128 130 133 141 157 168 168 165 166 165
157 160 151 122 114 63 47 257 257 231 250 264 249 257 274 283 291 289 191 178 222 149 132 139 121 104 114 99 94 125 143 158 168 165 167 170 165 168 173 175 176 173 171 172 171 169 165 164 164 166 173 177 176 175 172 171 172 172 173 175 175 172 171 172 172 169 166 162 157 149 144 141 140 136 134 128 123 122 121 121 119 118 117 117 117 117 120 124 131 139 150 165 176 177 171 171 170
155 161 150 104 120 120 309 275 248 250 253 253 265 271 281 289 289 265 208 186 184 139 122 138 119 122 123 100 97 137 161 161 165 164 168 170 168 170 173 177 178 174 171 171 169 168 164 164 162 161 171 178 178 176 174 173 173 173 175 176 175 173 173 174 171 169 167 162 155 149 146 144 141 138 136 130 124 124 123 124 121 121 121 119 116 110 108 109 121 139 156 169 179 186 180 177 176
149 165 129 92 95 158 226 250 258 268 267 277 285 284 294 298 294 264 197 168 161 129 127 129 112 123 120 98 105 141 164 163 168 166 167 169 170 172 175 178 179 176 174 171 169 166 162 162 160 159 167 176 179 179 176 176 177 177 178 176 174 174 173 173 170 169 167 161 155 151 149 146 145 144 140 135 130 129 129 128 126 126 125 121 114 107 106 104 111 134 159 173 179 189 188 183 180
157 340 92 101 155 184 207 215 267 283 296 317 293 308 323 315 315 283 149 129 138 127 136 142 136 132 110 92 124 146 162 164 171 166 163 168 170 173 177 179 179 178 176 173 170 168 167 168 164 161 167 174 179 181 179 180 182 182 179 177 176 174 172 172 170 170 168 162 158 153 151 149 149 147 144 141 137 138 137 135 133 132 132 125 117 110 107 103 106 126 156 174 181 189 191 188 184
176 147 99 145 190 176 168 163 276 314 319 298 247 324 343 346 2 65 118 115 128 126 146 155 147 133 92 117 130 149 162 167 172 167 164 169 172 175 179 180 180 179 177 176 171 171 173 173 169 165 169 172 176 179 181 184 183 182 178 177 177 173 170 170 171 170 168 164 160 155 152 151 151 150 147 146 144 145 143 138 137 136 136 129 119 112 108 100 99 117 149 172 183 189 193 192 187
169 156 124 172 178 130 148 167 264 63 290 267 274 339 0 10 9 88 105 101 80 91 146 152 144 120 106 132 135 158 163 168 171 169 168 171 175 176 180 181 180 179 178 176 172 174 175 172 167 162 164 167 171 173 179 184 181 179 177 176 175 171 169 169 170 169 167 165 162 157 155 154 153 153 149 150 150 150 147 142 138 139 138 128 117 109 107 103 97 108 142 169 182 188 194 194 190
155 150 106 134 66 97 186 196 162 137 250 249 318 347 15 19 13 75 80 79 71 111 136 146 146 109 159 166 170 173 167 169 171 170 169 171 175 177 181 180 179 179 178 177 176 177 173 169 166 163 166 169 172 172 175 179 177 176 174 174 171 170 168 167 169 167 166 164 162 161 160 161 157 155 153 152 152 153 153 148 143 143 142 130 116 108 107 106 105 107 133 166 180 186 192 194 192
142 126 80 107 218 187 204 191 151 142 252 238 328 356 19 25 34 45 33 117 115 127 139 152 171 319 176 177 174 172 167 169 170 168 171 173 176 178 181 179 177 179 178 177 179 178 172 170 169 167 168 170 173 173 174 175 172 172 172 172 170 169 167 167 168 166 164 162 163 166 168 168 162 160 158 158 156 155 155 151 150 147 147 143 129 116 111 114 119 116 126 162 179 185 190 194 193
141 100 78 137 208 179 196 191 163 169 265 271 348 7 14 17 55 70 95 123 116 126 127 149 206 228 179 178 172 170 167 173 170 168 173 175 178 179 180 179 177 180 180 179 180 179 175 174 171 167 167 169 172 172 171 169 168 169 172 172 169 169 169 168 169 166 166 166 168 170 170 167 165 167 163 164 162 155 155 154 151 144 145 149 148 143 123 125 137 138 136 160 178 184 189 194 194
145 101 125 210 190 182 184 186 186 172 267 288 330 356 16 338 60 117 118 102 97 97 74 86 117 167 175 170 166 168 169 176 171 170 176 177 180 180 180 180 179 182 182 181 181 180 180 176 173 171 170 169 169 168 168 167 168 171 173 172 168 170 172 170 170 169 170 171 171 169 166 167 169 175 170 170 166 157 161 161 151 145 150 153 158 168 171 163 151 154 158 167 179 186 192 194 194
160 105 153 219 191 204 201 199 216 193 273 300 313 334 351 323 327 154 148 66 97 89 66 90 108 129 156 159 165 168 171 177 174 174 178 180 183 182 181 181 182 185 184 182 181 182 183 178 175 175 173 170 169 169 169 170 172 173 174 172 170 174 175 173 173 174 174 173 174 169 166 171 175 180 180 172 166 169 175 172 160 153 171 171 170 176 182 186 169 160 166 177 186 190 194 195 195
194 127 195 241 206 223 242 238 259 266 293 310 307 322 324 321 329 161 150 123 126 129 136 129 133 143 151 161 166 167 171 178 178 177 181 183 185 185 183 183 186 188 185 184 182 183 184 179 176 176 173 170 172 173 174 174 175 177 176 174 175 178 179 177 178 179 177 177 176 172 171 177 183 190 195 185 184 202 205 196 178 171 225 194 181 181 184 189 188 174 168 177 189 194 194 194 195
192 159 201 227 169 195 248 241 263 280 293 292 290 316 320 325 360 135 137 126 267 212 188 173 166 163 159 166 168 169 175 180 181 181 183 185 187 188 187 187 189 189 186 186 186 184 184 182 178 175 174 174 177 179 179 178 178 180 180 179 181 181 183 183 184 185 182 182 179 175 176 186 197 206 216 214 221 235 234 222 203 254 262 204 186 187 189 193 200 187 169 174 185 193 194 191 191
174 216 225 218 164 189 269 256 271 290 292 287 289 313 306 321 17 135 149 152 246 221 205 191 180 173 167 170 170 173 179 182 184 185 186 188 191 191 190 190 191 189 187 188 188 186 186 185 181 179 180 179 181 183 182 179 180 184 185 186 186 186 189 190 191 191 188 188 185 182 186 197 211 225 239 242 248 250 250 239 222 248 250 210 187 195 206 204 206 195 180 183 184 188 191 187 188
217 266 262 252 230 226 274 277 284 290 286 279 270 287 294 311 16 143 187 245 256 239 215 193 183 178 172 171 173 178 182 184 186 186 187 190 193 193 192 192 191 190 190 190 188 187 189 187 186 186 186 183 183 185 185 183 185 190 192 193 193 194 197 199 200 198 194 194 194 193 197 208 221 236 250 253 252 246 248 241 233 244 236 207 190 204 216 204 204 198 190 190 181 182 184 181 184
198 269 301 275 256 243 271 280 282 281 274 271 275 285 284 281 282 164 246 278 272 248 204 185 174 171 171 173 176 181 183 186 187 187 189 192 195 195 194 194 192 192 193 191 189 189 191 190 190 191 188 185 185 186 188 189 192 195 198 201 202 204 207 210 211 208 206 207 205 204 207 217 224 236 248 248 246 240 236 233 237 245 235 212 198 199 195 188 194 192 191 189 177 174 174 172 180
196 237 267 275 263 260 277 284 284 281 273 274 275 266 269 268 223 156 55 311 210 185 179 170 163 167 172 175 178 182 185 187 188 190 193 196 199 197 196 196 193 194 195 193 192 193 195 193 191 192 189 185 185 189 192 195 199 202 206 211 213 215 218 220 223 223 223 220 218 219 222 228 227 227 231 234 237 232 228 227 232 237 238 222 203 194 186 184 186 181 184 185 177 170 167 168 176
207 220 242 269 275 277 283 285 283 281 275 268 237 250 262 236 148 137 275 164 158 161 163 160 162 170 174 177 181 183 186 187 189 192 195 200 202 199 196 195 194 194 195 195 194 196 199 198 193 192 190 186 189 195 197 200 205 211 217 221 225 229 230 231 232 233 233 230 230 233 232 234 234 230 226 228 233 232 228 225 226 229 243 233 210 202 194 189 186 181 180 184 180 172 169 170 174
215 218 240 254 269 283 283 276 276 276 274 241 199 241 247 168 143 250 215 172 160 156 155 162 168 173 176 180 183 185 187 188 191 193 197 202 201 198 194 194 195 195 196 195 195 198 201 202 198 193 191 191 196 201 204 208 214 219 224 228 234 237 239 241 240 241 242 239 240 238 235 239 243 239 229 228 235 238 235 228 228 233 246 242 221 211 202 198 193 186 182 185 185 179 175 176 177
246 228 260 270 286 295 266 253 266 258 263 234 203 212 114 146 177 215 189 172 165 160 157 167 173 176 179 182 185 188 190 191 193 195 198 200 198 195 192 195 195 196 199 198 198 201 201 203 202 196 194 197 201 206 211 215 222 227 230 233 237 241 243 247 247 247 246 244 247 245 244 248 248 243 231 225 233 235 230 228 232 238 248 245 228 218 208 207 203 194 186 184 189 188 186 186 189
259 228 274 294 353 328 258 239 252 206 227 229 193 202 357 178 243 198 174 166 163 163 161 169 176 179 183 186 189 191 193 195 196 198 199 197 196 192 189 195 197 196 199 198 200 203 202 205 206 201 196 199 202 205 212 217 224 227 229 232 236 240 242 245 246 248 247 246 254 256 251 250 249 246 238 228 229 223 212 216 231 242 248 243 229 220 212 211 210 200 190 184 190 195 199 205 208
269 63 133 307 5 334 269 196 183 172 235 204 162 229 274 251 263 187 167 163 162 166 169 173 178 182 186 190 194 195 197 198 198 199 198 196 196 191 189 193 196 197 195 195 198 199 202 202 203 205 197 196 198 198 206 211 216 219 222 228 232 235 235 235 237 240 244 246 259 261 249 249 253 250 240 230 228 221 210 208 218 233 245 245 234 226 219 218 217 209 196 190 190 197 208 217 217
298 351 54 353 18 283 289 313 141 156 245 190 155 243 252 267 264 181 170 169 166 169 174 176 180 186 190 192 195 197 199 200 199 198 197 197 195 193 192 191 192 196 195 196 199 196 199 194 190 199 192 186 190 192 198 200 205 213 220 227 228 229 231 238 241 241 247 252 262 263 250 246 250 246 235 227 226 223 216 208 207 219 235 250 242 232 230 228 225 216 204 199 197 196 204 213 214
31 88 316 343 130 267 301 301 172 182 253 185 162 246 254 272 236 182 175 176 173 171 173 179 184 189 193 195 195 198 200 201 199 197 198 197 193 194 195 192 192 193 191 198 205 197 196 194 189 192 185 181 187 188 191 193 201 212 219 222 221 222 231 249 260 261 267 270 267 269 266 249 239 233 222 215 217 221 220 213 208 210 221 244 246 238 238 241 238 226 211 208 206 204 204 208 210
2 100 218 284 150 281 315 312 218 199 190 181 174 170 241 274 214 184 179 181 180 173 175 182 190 194 195 196 197 199 201 202 200 197 198 195 192 195 195 193 189 180 180 193 201 196 194 196 189 185 183 184 186 184 188 192 199 209 212 212 211 217 227 244 257 263 274 276 270 275 280 268 241 224 216 210 211 218 221 215 209 208 211 228 242 239 240 247 250 236 222 220 217 214 213 213 215
321 26 95 244 215 259 307 312 290 153 106 224 181 145 225 270 192 180 182 184 183 179 183 189 194 197 197 198 200 202 203 204 202 198 196 193 193 197 194 188 175 169 180 186 183 181 185 190 184 181 186 188 187 186 191 196 201 209 211 212 214 216 222 232 244 254 265 270 268 269 272 278 259 227 218 214 211 215 222 219 217 219 219 221 232 240 243 249 252 243 233 227 220 218 220 220 223
204 158 48 297 290 281 255 280 298 49 38 227 169 167 239 278 173 181 184 183 186 189 191 196 200 198 198 200 202 204 206 206 206 201 195 192 196 201 196 182 171 174 186 185 181 179 180 188 186 184 188 191 192 193 198 207 218 225 224 231 233 225 225 231 242 251 259 265 265 262 260 266 260 234 220 217 214 214 218 221 225 230 229 225 227 238 246 250 253 247 238 233 226 224 225 224 226
156 169 162 197 258 278 252 254 261 109 104 222 195 191 226 215 174 185 185 184 189 194 195 200 202 198 199 202 204 207 208 208 208 204 197 195 199 205 199 183 175 182 190 190 189 185 184 190 191 191 193 195 199 201 206 221 242 263 266 269 266 258 243 230 235 246 260 273 274 274 269 259 251 239 224 217 215 214 216 219 225 230 232 229 229 237 241 243 246 244 239 238 238 236 233 227 224
130 135 157 203 222 272 265 264 276 156 142 229 207 185 205 192 183 184 175 178 185 189 194 198 196 197 201 204 206 209 209 209 209 207 202 199 201 205 200 186 183 188 193 195 197 192 190 194 197 197 197 200 207 209 215 230 251 292 306 304 291 278 263 224 217 237 277 302 303 292 282 267 252 244 237 228 220 218 220 222 227 233 235 233 232 235 236 235 237 238 238 240 243 243 235 225 221
102 137 217 265 226 247 259 260 296 285 161 272 179 168 209 211 192 179 163 168 183 188 192 194 191 194 202 207 210 210 209 209 209 210 208 203 201 202 199 192 190 192 195 198 202 202 198 198 201 201 201 208 211 211 214 223 247 282 298 310 306 289 283 259 224 265 307 320 333 332 310 282 261 254 251 247 243 240 241 240 242 247 247 242 235 235 239 241 241 240 240 242 245 243 234 224 220
89 119 163 256 241 270 288 277 312 338 130 318 105 134 277 299 222 194 172 179 196 195 196 197 192 195 203 210 212 211 208 207 209 211 211 206 201 200 198 195 195 196 200 204 207 209 206 202 203 202 205 213 213 208 207 212 237 263 274 287 294 289 298 311 322 345 356 344 338 347 343 339 310 285 280 265 260 253 251 250 249 253 253 247 238 237 243 246 246 245 246 248 246 245 239 231 224
120 137 142 244 261 325 297 287 327 354 46 113 110 97 9 346 340 277 223 195 200 202 203 206 201 201 208 214 216 214 209 206 207 210 211 207 201 200 199 197 198 200 205 210 209 209 207 204 203 202 208 215 213 209 206 208 224 245 256 261 269 280 300 324 337 349 3 5 355 346 331 330 330 298 293 272 257 243 240 237 238 243 239 234 232 238 243 243 245 248 250 250 247 246 241 235 229
239 186 166 216 252 203 215 291 340 353 15 71 89 58 354 358 169 249 250 198 139 185 192 202 208 209 215 223 224 219 212 207 207 210 210 206 201 200 199 199 201 203 208 210 207 206 205 203 203 204 211 215 211 210 208 209 220 233 243 254 278 305 318 334 342 347 360 3 354 349 322 297 266 255 259 262 256 248 250 252 252 247 239 231 226 237 241 236 241 243 244 246 247 250 247 245 240
297 234 198 195 202 204 216 345 20 33 11 7 67 66 324 320 269 223 233 229 193 172 183 196 205 212 220 227 228 221 214 210 209 212 210 205 202 200 199 200 201 203 208 208 204 204 204 204 204 206 214 214 209 209 210 214 224 230 239 267 328 350 347 344 345 343 351 3 6 9 349 306 278 263 258 259 257 257 266 271 266 258 247 228 213 221 222 216 227 231 236 237 239 244 243 246 249
326 248 200 174 157 157 135 63 65 84 195 303 63 114 210 317 300 243 257 227 221 215 205 202 202 209 219 225 227 221 215 211 210 213 211 206 204 202 202 202 202 204 208 205 202 203 203 203 206 212 217 214 208 208 209 216 224 223 222 240 338 1 354 350 352 346 345 353 0 7 9 354 313 287 275 272 272 283 296 290 272 269 233 187 188 186 157 144 167 204 231 237 236 238 235 240 253
235 232 153 142 147 156 138 93 93 198 211 322 13 91 121 319 267 284 13 160 221 254 233 220 210 210 217 223 225 221 216 213 211 212 212 209 207 206 205 203 204 206 206 203 201 201 201 203 209 216 219 215 210 209 210 215 222 221 212 210 264 321 331 342 350 346 340 341 344 348 353 358 351 315 289 292 304 316 335 334 252 104 104 120 119 114 105 103 104 102 99 84 69 244 250 254 262
238 202 133 137 141 135 128 96 85 346 102 295 326 32 101 248 272 324 42 128 231 249 229 225 218 213 216 220 223 223 219 215 213 213 213 211 209 208 207 205 206 207 206 204 202 202 203 206 213 220 222 217 211 211 212 215 221 222 216 224 276 298 308 328 340 337 332 329 329 330 333 336 337 332 311 309 315 331 38 101 130 111 114 113 102 107 107 100 94 91 92 88 83 84 85 116 230
208 153 101 65 62 73 82 91 98 30 58 234 290 359 107 255 288 329 35 133 233 247 237 226 219 217 217 218 220 222 221 217 214 214 214 213 211 210 209 207 208 208 206 206 205 205 207 212 218 223 223 218 213 214 215 217 220 218 212 232 285 297 304 321 331 326 321 319 317 315 314 316 321 330 324 318 315 77 101 113 121 120 124 124 115 115 110 86 277 238 196 153 128 107 101 108 116
130 110 67 48 33 28 39 54 84 63 10 252 268 307 120 224 285 265 202 243 240 263 278 250 219 216 217 218 219 220 221 219 214 214 215 214 212 210 209 209 211 210 208 209 210 210 213 219 224 227 224 219 214 215 218 217 217 216 211 220 266 296 308 320 327 324 317 313 309 309 312 318 327 337 336 358 121 126 108 104 102 112 144 161 155 161 247 282 271 236 173 149 145 135 125 121 116
103 83 71 76 8 9 26 1 49 88 266 259 272 276 137 153 254 236 261 280 277 269 272 271 228 217 215 215 216 217 219 219 214 213 214 213 212 209 209 210 212 212 211 212 213 215 220 224 228 228 223 218 214 214 217 216 215 216 212 215 256 298 312 320 324 321 313 309 307 312 320 329 342 353 355 52 111 128 101 47 26 61 123 129 122 112 104 106 112 120 127 130 133 134 130 125 119
81 84 83 94 20 14 30 316 18 159 238 263 305 297 169 205 223 209 250 276 279 264 260 261 252 236 220 210 210 211 213 215 213 213 213 213 212 210 211 212 213 215 216 216 218 220 224 228 230 225 219 216 214 212 215 215 217 218 214 222 252 280 290 307 316 309 302 303 306 315 324 338 358 1 3 52 110 131 58 10 44 100 114 113 107 101 98 97 98 101 106 110 114 114 112 110 108
128 136 125 120 102 88 191 266 330 233 241 289 318 308 254 259 268 253 265 280 290 299 298 261 241 236 216 197 194 196 200 205 206 209 211 212 214 213 213 214 216 218 218 220 222 224 228 230 227 221 218 216 214 215 218 218 218 217 216 229 248 258 259 255 269 286 288 293 300 313 321 342 12 356 2 128 141 143 106 77 103 112 111 107 101 96 95 95 95 97 99 100 102 102 100 101 100
169 158 128 141 155 141 188 213 168 198 233 315 316 308 172 201 287 303 300 324 344 12 54 98 135 167 169 166 171 176 185 192 195 200 204 205 208 210 212 215 219 222 223 224 226 228 232 230 222 220 220 218 216 214 211 213 218 217 220 229 236 247 236 200 212 275 270 271 285 302 312 327 30 3 145 146 144 139 126 116 116 114 109 105 98 91 91 94 96 98 100 102 104 103 102 102 102
217 133 109 151 179 140 130 171 166 163 138 4 279 226 208 207 279 309 339 7 13 36 70 92 106 123 133 137 144 151 160 171 182 191 193 195 199 206 212 217 223 228 230 230 231 234 236 228 221 220 218 215 214 213 218 235 243 238 236 231 230 234 218 205 251 265 227 229 255 268 286 289 263 146 155 153 147 142 137 130 128 124 115 106 99 96 95 96 97 97 96 98 99 100 100 100 100
161 120 159 213 170 118 110 126 33 81 122 205 256 262 299 339 317 318 8 21 4 20 51 79 100 115 119 119 122 122 120 115 115 157 175 174 183 205 218 223 230 236 239 239 240 242 240 230 219 213 215 221 227 232 242 249 243 240 243 237 231 230 220 224 243 228 208 222 234 236 251 260 263 229 172 165 158 155 150 145 145 143 131 116 108 104 100 98 97 96 96 95 94 95 95 95 94
127 174 198 190 105 97 105 107 21 51 142 250 336 298 293 27 167 310 14 30 350 351 22 65 90 105 108 109 113 112 106 99 86 57 92 122 130 202 247 245 244 246 247 249 250 250 246 239 226 217 227 245 252 251 251 248 241 243 248 242 235 231 221 224 228 215 217 227 219 227 243 251 258 247 216 190 178 175 166 160 161 159 148 131 121 114 109 106 103 101 101 100 98 96 95 96 95
113 166 158 114 122 134 95 120 131 116 162 267 339 327 258 188 216 291 18 198 305 345 19 70 87 101 107 110 113 111 104 106 122 145 99 72 86 225 261 254 246 246 247 249 250 249 245 243 240 240 249 257 257 251 247 245 243 246 248 245 239 233 222 219 220 214 219 214 202 205 217 234 248 238 230 220 203 200 184 176 173 169 161 144 131 124 119 116 113 110 110 110 109 106 103 101 101
46 82 57 37 128 153 154 141 149 145 155 212 317 353 274 224 214 222 238 243 226 182 80 110 119 122 127 130 129 131 133 140 158 170 165 157 171 208 233 230 226 234 242 246 245 244 243 241 243 250 257 260 256 248 240 239 241 242 243 242 240 232 224 222 220 212 212 206 196 194 201 218 234 229 226 219 210 212 196 181 175 175 177 167 151 139 129 120 116 113 113 115 114 114 113 110 107
69 58 40 19 69 121 141 98 99 126 139 171 161 238 269 251 218 234 263 260 221 181 151 131 127 131 142 142 136 141 150 155 166 171 164 172 186 201 212 204 210 228 237 242 241 241 243 244 247 253 259 261 259 252 239 232 234 237 239 242 237 224 222 229 224 210 208 205 198 199 204 210 217 221 222 217 218 226 221 198 175 172 178 180 182 173 157 139 122 116 111 108 101 100 107 108 105
137 125 147 148 123 124 125 112 265 104 120 165 158 184 262 274 276 277 284 270 231 162 117 87 103 125 136 135 132 140 148 150 157 158 152 163 175 185 191 180 188 212 220 227 225 227 237 243 250 256 256 252 253 254 245 232 230 234 238 241 232 221 224 233 223 207 207 206 202 206 210 209 211 217 219 218 223 229 231 232 214 193 185 186 199 210 208 211 207 244 263 282 329 332 339 344 339